PTALB SNBI-SSRS

Flight info

Callsign PTALB
Flight time 1h 3m
Altitude 5500
Route DCT 0402S04428W 0333S04354W DCT 0312S04323W DCT 0301S04254W DCT
Aircraft BE36/L-BDFGLORY/S

Departure

Time 2026-04-18 00:36
Airport Bacabal Airport (SNBI)

Arrival

Time 2026-04-18 01:40
Airport Barreirinhas National Airport (SSRS)
Time Latitude Longitude Altitude Speed Heading
2026-04-18 00:12 -4.23025 -44.82161 70 ft 0 kts 172°
2026-04-18 00:28 -4.23021 -44.82169 64 ft 6 kts 340°
2026-04-18 00:28 -4.22955 -44.82213 73 ft 12 kts 342°
2026-04-18 00:29 -4.22923 -44.82219 70 ft 0 kts 355°
2026-04-18 00:32 -4.22882 -44.82220 74 ft 17 kts
2026-04-18 00:32 -4.22845 -44.82323 75 ft 22 kts 263°
2026-04-18 00:33 -4.22863 -44.82478 70 ft 23 kts 263°
2026-04-18 00:33 -4.22890 -44.82613 75 ft 12 kts 238°
2026-04-18 00:33 -4.22892 -44.82663 76 ft 9 kts 34°
2026-04-18 00:33 -4.22881 -44.82632 75 ft 0 kts 83°
2026-04-18 00:35 -4.22873 -44.82575 73 ft 40 kts 81°
2026-04-18 00:36 -4.22808 -44.82052 106 ft 101 kts 83°
2026-04-18 00:36 -4.22732 -44.81320 507 ft 106 kts 79°
2026-04-18 00:36 -4.22394 -44.80606 718 ft 128 kts 37°
2026-04-18 00:36 -4.21733 -44.79943 909 ft 142 kts 57°
2026-04-18 00:37 -4.21236 -44.79052 1084 ft 151 kts 59°
2026-04-18 00:37 -4.20724 -44.78128 1249 ft 152 kts 59°
2026-04-18 00:37 -4.20220 -44.77207 1413 ft 150 kts 59°
2026-04-18 00:37 -4.19714 -44.76285 1568 ft 152 kts 60°
2026-04-18 00:38 -4.19215 -44.75363 1712 ft 150 kts 59°
2026-04-18 00:38 -4.18716 -44.74442 1860 ft 151 kts 59°
2026-04-18 00:38 -4.18217 -44.73522 2016 ft 152 kts 61°
2026-04-18 00:38 -4.17703 -44.72575 2158 ft 154 kts 60°
2026-04-18 00:39 -4.17190 -44.71634 2308 ft 155 kts 62°
2026-04-18 00:39 -4.16676 -44.70685 2450 ft 153 kts 61°
2026-04-18 00:39 -4.16168 -44.69751 2595 ft 153 kts 61°
2026-04-18 00:39 -4.15656 -44.68806 2739 ft 155 kts 62°
2026-04-18 00:40 -4.15148 -44.67869 2874 ft 154 kts 63°
2026-04-18 00:40 -4.14633 -44.66923 3032 ft 155 kts 63°
2026-04-18 00:40 -4.14122 -44.65981 3173 ft 156 kts 63°
2026-04-18 00:40 -4.13602 -44.65024 3314 ft 155 kts 63°
2026-04-18 00:41 -4.13085 -44.64075 3460 ft 154 kts 63°
2026-04-18 00:41 -4.12570 -44.63124 3604 ft 155 kts 63°
2026-04-18 00:41 -4.12059 -44.62180 3750 ft 156 kts 63°
2026-04-18 00:41 -4.11537 -44.61221 3894 ft 156 kts 64°
2026-04-18 00:42 -4.11020 -44.60267 4040 ft 158 kts 64°
2026-04-18 00:42 -4.10487 -44.59286 4190 ft 159 kts 63°
2026-04-18 00:42 -4.09960 -44.58319 4335 ft 159 kts 64°
2026-04-18 00:42 -4.09432 -44.57344 4479 ft 158 kts 64°
2026-04-18 00:43 -4.08915 -44.56396 4627 ft 156 kts 64°
2026-04-18 00:43 -4.08398 -44.55443 4765 ft 155 kts 64°
2026-04-18 00:43 -4.07882 -44.54495 4908 ft 155 kts 64°
2026-04-18 00:43 -4.07365 -44.53541 5050 ft 155 kts 64°
2026-04-18 00:44 -4.06854 -44.52601 5191 ft 155 kts 64°
2026-04-18 00:44 -4.06334 -44.51645 5338 ft 155 kts 64°
2026-04-18 00:44 -4.05818 -44.50694 5477 ft 158 kts 64°
2026-04-18 00:44 -4.05280 -44.49701 5500 ft 165 kts 64°
2026-04-18 00:45 -4.04725 -44.48680 5505 ft 168 kts 64°
2026-04-18 00:45 -4.04168 -44.47655 5511 ft 170 kts 64°
2026-04-18 00:45 -4.03568 -44.46626 5513 ft 172 kts 54°
2026-04-18 00:45 -4.02760 -44.45721 5512 ft 174 kts 51°
2026-04-18 00:46 -4.01962 -44.44821 5515 ft 174 kts 52°
2026-04-18 00:46 -4.01165 -44.43915 5512 ft 168 kts 52°
2026-04-18 00:46 -4.00396 -44.43040 5505 ft 165 kts 52°
2026-04-18 00:46 -3.99640 -44.42177 5500 ft 167 kts 52°
2026-04-18 00:47 -3.98866 -44.41291 5509 ft 169 kts 52°
2026-04-18 00:47 -3.98081 -44.40396 5504 ft 171 kts 52°
2026-04-18 00:47 -3.97300 -44.39505 5515 ft 172 kts 52°
2026-04-18 00:47 -3.96512 -44.38605 5511 ft 171 kts 52°
2026-04-18 00:48 -3.95730 -44.37714 5513 ft 172 kts 52°
2026-04-18 00:48 -3.94939 -44.36811 5514 ft 173 kts 52°
2026-04-18 00:48 -3.94146 -44.35906 5509 ft 173 kts 52°
2026-04-18 00:49 -3.92556 -44.34090 5512 ft 174 kts 52°
2026-04-18 00:49 -3.91759 -44.33183 5512 ft 173 kts 52°
2026-04-18 00:49 -3.90956 -44.32264 5515 ft 175 kts 52°
2026-04-18 00:49 -3.90154 -44.31349 5509 ft 175 kts 52°
2026-04-18 00:50 -3.89350 -44.30434 5515 ft 175 kts 52°
2026-04-18 00:50 -3.88542 -44.29510 5500 ft 176 kts 52°
2026-04-18 00:50 -3.87742 -44.28599 5506 ft 174 kts 52°
2026-04-18 00:50 -3.86954 -44.27701 5504 ft 172 kts 52°
2026-04-18 00:51 -3.86155 -44.26789 5480 ft 175 kts 52°
2026-04-18 00:51 -3.85352 -44.25873 5425 ft 177 kts 52°
2026-04-18 00:51 -3.84542 -44.24946 5421 ft 175 kts 52°
2026-04-18 00:51 -3.83738 -44.24033 5422 ft 174 kts 52°
2026-04-18 00:52 -3.82947 -44.23133 5419 ft 173 kts 52°
2026-04-18 00:52 -3.82154 -44.22224 5420 ft 172 kts 52°
2026-04-18 00:52 -3.81361 -44.21320 5417 ft 172 kts 52°
2026-04-18 00:52 -3.80579 -44.20429 5417 ft 171 kts 52°
2026-04-18 00:53 -3.79788 -44.19526 5415 ft 172 kts 52°
2026-04-18 00:53 -3.79003 -44.18631 5420 ft 173 kts 52°
2026-04-18 00:53 -3.78202 -44.17718 5418 ft 173 kts 52°
2026-04-18 00:53 -3.77417 -44.16822 5415 ft 172 kts 52°
2026-04-18 00:54 -3.76620 -44.15914 5417 ft 172 kts 52°
2026-04-18 00:54 -3.75828 -44.15011 5421 ft 172 kts 52°
2026-04-18 00:54 -3.75043 -44.14115 5416 ft 172 kts 52°
2026-04-18 00:54 -3.74250 -44.13210 5415 ft 172 kts 52°
2026-04-18 00:55 -3.73460 -44.12310 5416 ft 171 kts 52°
2026-04-18 00:55 -3.72679 -44.11419 5412 ft 171 kts 52°
2026-04-18 00:55 -3.71889 -44.10519 5413 ft 171 kts 52°
2026-04-18 00:55 -3.71109 -44.09630 5414 ft 172 kts 52°
2026-04-18 00:56 -3.70319 -44.08730 5413 ft 171 kts 52°
2026-04-18 00:56 -3.69539 -44.07839 5412 ft 171 kts 52°
2026-04-18 00:56 -3.68747 -44.06937 5416 ft 171 kts 52°
2026-04-18 00:56 -3.67959 -44.06038 5417 ft 172 kts 52°
2026-04-18 00:57 -3.67176 -44.05146 5414 ft 172 kts 52°
2026-04-18 00:57 -3.66386 -44.04245 5415 ft 172 kts 52°
2026-04-18 00:57 -3.65596 -44.03345 5412 ft 172 kts 52°
2026-04-18 00:57 -3.64811 -44.02451 5424 ft 172 kts 52°
2026-04-18 00:58 -3.64016 -44.01548 5416 ft 172 kts 52°
2026-04-18 00:58 -3.63225 -44.00645 5415 ft 172 kts 52°
2026-04-18 00:58 -3.62433 -43.99741 5419 ft 172 kts 52°
2026-04-18 00:58 -3.61646 -43.98843 5419 ft 172 kts 52°
2026-04-18 00:59 -3.60863 -43.97950 5416 ft 172 kts 52°
2026-04-18 00:59 -3.60067 -43.97043 5413 ft 172 kts 51°
2026-04-18 00:59 -3.59271 -43.96137 5420 ft 173 kts 52°
2026-04-18 00:59 -3.58486 -43.95240 5415 ft 173 kts 52°
2026-04-18 01:00 -3.57684 -43.94328 5421 ft 173 kts 52°
2026-04-18 01:00 -3.56891 -43.93424 5417 ft 174 kts 52°
2026-04-18 01:00 -3.56357 -43.92815 5409 ft 174 kts 52°
2026-04-18 01:00 -3.55553 -43.91901 5412 ft 174 kts 52°
2026-04-18 01:01 -3.54590 -43.90631 5414 ft 173 kts 60°
2026-04-18 01:01 -3.54144 -43.89944 5414 ft 173 kts 60°
2026-04-18 01:01 -3.53485 -43.88948 5419 ft 172 kts 59°
2026-04-18 01:01 -3.52818 -43.87943 5422 ft 172 kts 59°
2026-04-18 01:02 -3.52161 -43.86954 5426 ft 172 kts 59°
2026-04-18 01:02 -3.51494 -43.85949 5424 ft 173 kts 59°
2026-04-18 01:02 -3.50829 -43.84944 5422 ft 173 kts 59°
2026-04-18 01:02 -3.50169 -43.83949 5418 ft 173 kts 59°
2026-04-18 01:03 -3.49505 -43.82946 5418 ft 173 kts 59°
2026-04-18 01:03 -3.48842 -43.81947 5424 ft 172 kts 59°
2026-04-18 01:03 -3.48177 -43.80943 5420 ft 172 kts 59°
2026-04-18 01:03 -3.47521 -43.79953 5416 ft 172 kts 59°
2026-04-18 01:04 -3.46863 -43.78960 5417 ft 172 kts 59°
2026-04-18 01:04 -3.46198 -43.77958 5425 ft 172 kts 59°
2026-04-18 01:04 -3.45538 -43.76962 5416 ft 172 kts 59°
2026-04-18 01:04 -3.44879 -43.75969 5417 ft 172 kts 59°
2026-04-18 01:05 -3.44216 -43.74967 5417 ft 172 kts 59°
2026-04-18 01:05 -3.43550 -43.73964 5423 ft 172 kts 59°
2026-04-18 01:05 -3.42898 -43.72980 5418 ft 172 kts 59°
2026-04-18 01:05 -3.42236 -43.71981 5416 ft 172 kts 59°
2026-04-18 01:06 -3.41570 -43.70976 5416 ft 172 kts 59°
2026-04-18 01:06 -3.40913 -43.69986 5421 ft 172 kts 59°
2026-04-18 01:06 -3.40244 -43.68978 5418 ft 172 kts 59°
2026-04-18 01:06 -3.39593 -43.67994 5415 ft 171 kts 59°
2026-04-18 01:07 -3.38931 -43.66997 5416 ft 171 kts 59°
2026-04-18 01:07 -3.38268 -43.65997 5421 ft 172 kts 59°
2026-04-18 01:07 -3.37612 -43.65008 5421 ft 172 kts 59°
2026-04-18 01:07 -3.36947 -43.64004 5418 ft 172 kts 60°
2026-04-18 01:08 -3.36283 -43.63003 5419 ft 172 kts 59°
2026-04-18 01:08 -3.35626 -43.62013 5416 ft 172 kts 59°
2026-04-18 01:08 -3.34962 -43.61011 5418 ft 172 kts 59°
2026-04-18 01:08 -3.34299 -43.60010 5419 ft 173 kts 59°
2026-04-18 01:09 -3.33640 -43.59017 5418 ft 173 kts 59°
2026-04-18 01:09 -3.32972 -43.58011 5419 ft 173 kts 59°
2026-04-18 01:09 -3.32312 -43.57015 5423 ft 173 kts 59°
2026-04-18 01:09 -3.31642 -43.56005 5422 ft 173 kts 59°
2026-04-18 01:10 -3.30982 -43.55011 5422 ft 173 kts 59°
2026-04-18 01:10 -3.30315 -43.54006 5422 ft 173 kts 59°
2026-04-18 01:10 -3.29655 -43.53010 5421 ft 172 kts 59°
2026-04-18 01:10 -3.28986 -43.52001 5421 ft 173 kts 59°
2026-04-18 01:11 -3.28324 -43.51003 5422 ft 173 kts 59°
2026-04-18 01:11 -3.27656 -43.49996 5421 ft 173 kts 59°
2026-04-18 01:11 -3.26987 -43.48988 5427 ft 173 kts 59°
2026-04-18 01:11 -3.26328 -43.47996 5422 ft 173 kts 59°
2026-04-18 01:12 -3.25658 -43.46986 5422 ft 172 kts 59°
2026-04-18 01:12 -3.24995 -43.45986 5421 ft 172 kts 59°
2026-04-18 01:12 -3.24332 -43.44987 5419 ft 172 kts 59°
2026-04-18 01:12 -3.23675 -43.43996 5420 ft 172 kts 59°
2026-04-18 01:13 -3.23010 -43.42994 5422 ft 172 kts 59°
2026-04-18 01:13 -3.22350 -43.41999 5420 ft 173 kts 59°
2026-04-18 01:13 -3.21681 -43.40991 5422 ft 172 kts 59°
2026-04-18 01:13 -3.21024 -43.40001 5421 ft 173 kts 59°
2026-04-18 01:14 -3.20491 -43.38933 5421 ft 171 kts 73°
2026-04-18 01:14 -3.20089 -43.37805 5424 ft 171 kts 72°
2026-04-18 01:14 -3.19676 -43.36697 5422 ft 172 kts 72°
2026-04-18 01:14 -3.19259 -43.35583 5422 ft 172 kts 72°
2026-04-18 01:15 -3.18841 -43.34461 5422 ft 172 kts 72°
2026-04-18 01:15 -3.18419 -43.33330 5425 ft 171 kts 72°
2026-04-18 01:15 -3.18009 -43.32226 5424 ft 171 kts 72°
2026-04-18 01:15 -3.17591 -43.31102 5419 ft 171 kts 72°
2026-04-18 01:16 -3.17176 -43.29990 5421 ft 171 kts 72°
2026-04-18 01:16 -3.16764 -43.28881 5422 ft 171 kts 72°
2026-04-18 01:16 -3.16346 -43.27759 5426 ft 171 kts 72°
2026-04-18 01:16 -3.15933 -43.26649 5416 ft 171 kts 72°
2026-04-18 01:17 -3.15515 -43.25527 5417 ft 171 kts 72°
2026-04-18 01:17 -3.15103 -43.24420 5419 ft 170 kts 72°
2026-04-18 01:17 -3.14688 -43.23307 5420 ft 171 kts 72°
2026-04-18 01:17 -3.14272 -43.22188 5425 ft 171 kts 72°
2026-04-18 01:18 -3.13858 -43.21076 5419 ft 172 kts 72°
2026-04-18 01:18 -3.13443 -43.19963 5419 ft 172 kts 72°
2026-04-18 01:18 -3.13023 -43.18836 5418 ft 172 kts 72°
2026-04-18 01:18 -3.12606 -43.17717 5420 ft 172 kts 72°
2026-04-18 01:19 -3.12194 -43.16609 5423 ft 172 kts 72°
2026-04-18 01:19 -3.11772 -43.15477 5421 ft 171 kts 72°
2026-04-18 01:19 -3.11356 -43.14358 5373 ft 174 kts 72°
2026-04-18 01:19 -3.10937 -43.13226 5254 ft 171 kts 72°
2026-04-18 01:20 -3.10527 -43.12131 5134 ft 168 kts 71°
2026-04-18 01:20 -3.10074 -43.11048 5011 ft 167 kts 69°
2026-04-18 01:20 -3.09617 -43.10001 4886 ft 164 kts 69°
2026-04-18 01:20 -3.09159 -43.08953 4767 ft 163 kts 69°
2026-04-18 01:21 -3.08711 -43.07920 4643 ft 158 kts 70°
2026-04-18 01:21 -3.08314 -43.06923 4515 ft 154 kts 71°
2026-04-18 01:21 -3.07925 -43.05930 4388 ft 152 kts 71°
2026-04-18 01:21 -3.07543 -43.04945 4261 ft 150 kts 71°
2026-04-18 01:22 -3.07174 -43.03979 4135 ft 150 kts 71°
2026-04-18 01:22 -3.06816 -43.02992 4014 ft 149 kts 73°
2026-04-18 01:22 -3.06507 -43.02015 3893 ft 148 kts 74°
2026-04-18 01:22 -3.06197 -43.01021 3770 ft 149 kts 74°
2026-04-18 01:23 -3.05893 -43.00039 3656 ft 148 kts 74°
2026-04-18 01:23 -3.05589 -42.99041 3528 ft 153 kts 73°
2026-04-18 01:23 -3.05265 -42.97971 3431 ft 165 kts 74°
2026-04-18 01:23 -3.04940 -42.96870 3429 ft 167 kts 74°
2026-04-18 01:24 -3.04608 -42.95748 3429 ft 167 kts 74°
2026-04-18 01:24 -3.04275 -42.94627 3422 ft 168 kts 74°
2026-04-18 01:24 -3.03944 -42.93517 3428 ft 167 kts 74°
2026-04-18 01:24 -3.03598 -42.92399 3427 ft 168 kts 73°
2026-04-18 01:25 -3.03251 -42.91291 3426 ft 167 kts 73°
2026-04-18 01:25 -3.02819 -42.90213 3423 ft 168 kts 56°
2026-04-18 01:25 -3.01911 -42.89487 3424 ft 171 kts 28°
2026-04-18 01:25 -3.00808 -42.89019 3427 ft 171 kts 24°
2026-04-18 01:26 -2.99708 -42.88590 3425 ft 171 kts 22°
2026-04-18 01:26 -2.98578 -42.88202 3425 ft 171 kts 20°
2026-04-18 01:26 -2.97447 -42.87830 3424 ft 170 kts 20°
2026-04-18 01:26 -2.96322 -42.87460 3426 ft 171 kts 20°
2026-04-18 01:27 -2.95189 -42.87086 3428 ft 171 kts 20°
2026-04-18 01:27 -2.94064 -42.86725 3428 ft 171 kts 18°
2026-04-18 01:27 -2.92915 -42.86408 3423 ft 170 kts 17°
2026-04-18 01:27 -2.91777 -42.86097 3422 ft 171 kts 17°
2026-04-18 01:28 -2.90623 -42.85782 3423 ft 170 kts 17°
2026-04-18 01:28 -2.89483 -42.85470 3335 ft 165 kts 17°
2026-04-18 01:28 -2.88410 -42.85178 3212 ft 157 kts 17°
2026-04-18 01:28 -2.87384 -42.84903 3082 ft 151 kts 17°
2026-04-18 01:29 -2.86375 -42.84633 2957 ft 148 kts 17°
2026-04-18 01:29 -2.85389 -42.84373 2830 ft 146 kts 18°
2026-04-18 01:29 -2.84417 -42.84122 2702 ft 144 kts 17°
2026-04-18 01:29 -2.83445 -42.83869 2584 ft 143 kts 17°
2026-04-18 01:30 -2.82481 -42.83615 2459 ft 141 kts 20°
2026-04-18 01:30 -2.81577 -42.83284 2340 ft 139 kts 24°
2026-04-18 01:30 -2.80678 -42.82946 2217 ft 138 kts 23°
2026-04-18 01:30 -2.79774 -42.82607 2092 ft 137 kts 23°
2026-04-18 01:31 -2.78892 -42.82274 1976 ft 136 kts 23°
2026-04-18 01:31 -2.78102 -42.81789 1849 ft 133 kts 56°
2026-04-18 01:31 -2.77939 -42.80881 1732 ft 135 kts 89°
2026-04-18 01:31 -2.77944 -42.79947 1606 ft 134 kts 86°
2026-04-18 01:32 -2.77946 -42.79011 1492 ft 135 kts 87°
2026-04-18 01:32 -2.77945 -42.78076 1364 ft 132 kts 87°
2026-04-18 01:32 -2.77911 -42.77160 1236 ft 130 kts 72°
2026-04-18 01:32 -2.77303 -42.76552 1118 ft 131 kts 19°
2026-04-18 01:33 -2.76390 -42.76394 1007 ft 135 kts 12°
2026-04-18 01:33 -2.75462 -42.76227 920 ft 132 kts 12°
2026-04-18 01:33 -2.74575 -42.76104 912 ft 126 kts
2026-04-18 01:33 -2.73718 -42.76219 904 ft 127 kts 356°
2026-04-18 01:34 -2.72834 -42.76390 907 ft 133 kts 334°
2026-04-18 01:34 -2.72348 -42.77153 913 ft 135 kts 276°
2026-04-18 01:34 -2.72396 -42.78094 919 ft 135 kts 268°
2026-04-18 01:34 -2.72444 -42.78989 910 ft 125 kts 268°
2026-04-18 01:35 -2.72504 -42.79834 903 ft 119 kts 268°
2026-04-18 01:35 -2.72542 -42.80381 913 ft 118 kts 268°
2026-04-18 01:35 -2.72602 -42.81193 908 ft 116 kts 268°
2026-04-18 01:35 -2.72655 -42.82003 907 ft 119 kts 269°
2026-04-18 01:36 -2.72719 -42.82833 907 ft 119 kts 268°
2026-04-18 01:36 -2.72789 -42.83663 912 ft 119 kts 268°
2026-04-18 01:36 -2.72852 -42.84476 917 ft 118 kts 268°
2026-04-18 01:36 -2.72972 -42.85305 909 ft 123 kts 245°
2026-04-18 01:37 -2.73626 -42.85735 916 ft 114 kts 183°
2026-04-18 01:37 -2.74414 -42.85809 915 ft 112 kts 184°
2026-04-18 01:37 -2.75197 -42.85885 913 ft 113 kts 176°
2026-04-18 01:37 -2.75778 -42.85480 910 ft 103 kts 102°
2026-04-18 01:38 -2.75786 -42.84789 909 ft 99 kts 88°
2026-04-18 01:38 -2.75761 -42.84138 853 ft 90 kts 81°
2026-04-18 01:38 -2.75670 -42.83493 683 ft 91 kts 84°
2026-04-18 01:38 -2.75661 -42.82821 468 ft 104 kts 88°
2026-04-18 01:39 -2.75642 -42.82160 390 ft 90 kts 86°
2026-04-18 01:39 -2.75647 -42.81551 250 ft 86 kts 90°
2026-04-18 01:39 -2.75653 -42.80961 101 ft 82 kts 86°
2026-04-18 01:39 -2.75654 -42.80468 36 ft 57 kts 86°
2026-04-18 01:40 -2.75663 -42.80309 33 ft 10 kts 189°
2026-04-18 01:40 -2.75664 -42.80427 35 ft 24 kts 276°
2026-04-18 01:40 -2.75667 -42.80546 37 ft 12 kts 252°
2026-04-18 01:40 -2.75741 -42.80578 38 ft 16 kts 176°
2026-04-18 01:41 -2.75804 -42.80577 35 ft 0 kts 180°
2026-04-18 01:41 -2.75816 -42.80577 36 ft 5 kts 180°
2026-04-18 01:42 -2.75882 -42.80575 36 ft 14 kts 173°
2026-04-18 01:42 -2.75909 -42.80549 36 ft 7 kts 71°
2026-04-18 01:42 -2.75901 -42.80528 36 ft 0 kts 73°